NAVSTAR 53 (USA 175) (28129 NORAD) Tracking and Keplerian Element Data

This shows tracking and keplerian element data for the satellite.

Feedback or suggestion? Click here.




ElementValue
Catalog28129
NameNAVSTAR 53 (USA 175)
Epoch Orbit15478
Epoch Day34.31095424
Epoch Year2025
RAAN41.9328
Inclination54.6953
Eccentricity0.0069866
Argument of Perigee346.3821
Mean Anonmoly13.4605
Mean Motion2.00566459
Decay Rate-4.7E-07
L11 28129U 03058A 25034.31095424 -.00000047 00000+0 00000+0 0 9990
L22 28129 54.6953 41.9328 0069866 346.3821 13.4605 2.00566459154786



Live tracking and technical data element details for NAVSTAR 53 (USA 175) (NORAD 28129). NAVSTAR 53 (USA 175) can be tracked NOW for your location showing map with azimuth and elevation plus other details from your city location.







IsCatalogInMostPopularTable: catalog: 28129, numindb: 468
Update: records affected: 1



GetName: 28129 NAVSTAR 53 (USA 175)

Hit Count: updated at: Thu, 15 May 2025 09:34:46 GMT